Location: Berg
(47.2344°N, 9.5296°E)
Time: 22:35:09
(UTC+00:00)

S3M - Pass Details

Date: 24 January 2021
Orbit: 949 x 1004 km, 83.0° (Epoch: 03 March)

Event Time Altitude Azimuth Distance (km) Brightness Sun altitude
Rises 18:02:32 0° 356° (N) 3,638 7.0 -18.6°
Reaches altitude 10° 18:05:14 10° 4° (N) 2,685 6.2 -19.0°
Maximum altitude 18:10:56 39° 73° (ENE) 1,392 4.3 -20.0°
Enters shadow 18:12:26 34° 104° (ESE) 1,517 4.5 -20.2°
